Regional Weather Roundup
Issued by NWS

Home | Current Version | Previous Version | Text Only | Print | Product List | Glossary Off
Versions: 1 2 3 4 5 6 7 8 9 10 11 12 13 14 15 16 17 18 19 20 21 22 23 24 25 26 27

000
ASUS45 KCYS 240810
RWRWY

WYOMING REGIONAL WEATHER ROUNDUP
NATIONAL WEATHER SERVICE CHEYENNE WY
100 AM MST FRI NOV 24 2017

NOTE:  "FAIR" INDICATES FEW OR NO CLOUDS BELOW 12,000 FEET
WITH NO SIGNIFICANT WEATHER AND/OR OBSTRUCTIONS TO VISIBILITY.

WYZ001-240900-
YELLOWSTONE NATIONAL PARK

CITY           SKY/WX    TMP DP  RH WIND       PRES   REMARKS
LK YELLOWSTONE   N/A     40  33  76 W12G25    29.90F WCI  33
W YELLOWSTONE  NOT AVBL

$$
WYZ002>013-054>058-071-098>099-240900-
NORTHERN WYOMING

CITY           SKY/WX    TMP DP  RH WIND       PRES   REMARKS
JACKSON        CLOUDY    51  33  50 W31G44      N/A
CODY           LGT RAIN  52  37  56 S13       29.70F
GREYBULL       FAIR      34  31  88 CALM      29.70F
WORLAND        FAIR      50  36  58 SW17      29.70F
SHERIDAN       FAIR      63  29  27 MISG      29.58S
BUFFALO        FAIR      60  24  25 MISG      29.66F
GILLETTE       FAIR      57  29  34 SW20      29.62F
HULETT         FAIR      52  32  46 SW8       29.64S
NEWCASTLE      FAIR      39  32  75 N9        29.69F WCI  33

$$
WYZ014>020-022>026-101>103-240900-
CENTRAL WYOMING

CITY           SKY/WX    TMP DP  RH WIND       PRES   REMARKS
BIG PINEY      FAIR      40  32  73 SW10      30.00F WCI  33
PINEDALE       CLOUDY    36  36 100 SE7       30.01F WCI  30
DUBOIS         CLOUDY    41  32  70 NW9       29.87F
LANDER         FAIR      55  30  38 VRB3G18   29.84F
RIVERTON       FAIR      49  32  52 W14       29.83F
CASPER         FAIR      52  34  50 SW30G38   29.82S
DOUGLAS        FAIR      55  37  50 W14       29.77F

$$
WYZ021-027>030-104>119-240900-
SOUTHERN WYOMING

CITY           SKY/WX    TMP DP  RH WIND       PRES   REMARKS
EVANSTON       FAIR      48  32  53 SW23G30   30.07F
KEMMERER       FAIR      39  32  75 SW17      30.04F WCI  30
FORT BRIDGER   FAIR      47  31  54 SW17G24   30.08F
ROCK SPRINGS   FAIR      40  34  79 S7        30.04F
DIXON          FAIR      45  31  60 SW8       30.10F
RAWLINS        LGT RAIN  45  33  63 W30G38    29.97F
SARATOGA       CLOUDY    41  32  70 E8        30.05F
LARAMIE        CLOUDY    50  31  48 CALM      30.01F
CHEYENNE       FAIR      56  31  38 SE9       29.90S
TORRINGTON     FAIR      61  36  39 W24G32    29.74F
PINE BLUFFS    FAIR      54  30  40 W7        29.88R

$$




USA.gov is the U.S. government's official web portal to all federal, state and local government web resources and services.